Location: *
(45.1961°N, 1.9694°E)
Time: 01:44:15
(UTC+00:00)

Cosmos 2341 Rocket - Pass Details

Date: 25 August 2019
Orbit: 967 x 1005 km, 82.9° (Epoch: 17 October)

Event Time Altitude Azimuth Distance (km) Brightness Sun altitude
Rises 22:43:21 0° 348° (NNW) 3,734 8.1 -32.0°
Reaches altitude 10° 22:45:55 10° 346° (NNW) 2,776 7.2 -32.1°
Enters shadow 22:51:43 62° 291° (WNW) 1,109 4.3 -32.5°
